Flag for Cabo Verde Weather past 2 weeks in Santa Maria, Cabo Verde

Now
88 °F

Scattered clouds.


Feels Like: 96 °F
Forecast: 78 / 87 °F
Wind: 7 mph from North

Location: Sal

Current Time: Sep 2, 2015 at 12:20:59 PM

Latest Report: Sep 2, 2015 at 12:00 PM


Visibility: N/A

Pressure: 29.98 "Hg

Humidity: 62%

Dew point: 73 °F

Location of Santa MariaLocation

Historic Weather in Santa Maria — Graph

°F

Santa Maria temperature yesterday

Maximum temperature yesterday: 86 °F (at 1:00 PM)
Minimum temperature yesterday: 79 °F (at 7:00 PM)
Average temperature yesterday: 82 °F

Past Weeks' High & Low Weather Summary

 TemperatureHumidityPressure
High93 °F (Aug 25, 2:00 PM)100% (Sep 2, 3:00 AM)29.98 "Hg (Sep 2, 3:00 AM)
Low75 °F (Sep 2, 6:00 AM)52% (Aug 28, 1:00 PM)29.80 "Hg (Aug 31, 6:00 AM)
Average82 °F75%29.91 "Hg
* Reported Aug 18 11:00 AM — Sep 2 11:00 AM, Santa Maria, Weather by CustomWeather, © 2015

Note: Actual official high and low records may vary slightly from our data, if they occured in-between our weather recording intervals... More about our weather records

Advertising

Santa Maria weather history for previous 24 hours

 ConditionsComfort  
Time TempWeatherWind HumidityBarometerVisibility
11:00 AM
Wed, Sep 2
86 °FScattered clouds.9 mph70%29.98 "HgN/A
10:00 AM86 °FScattered clouds.7 mph70%29.98 "HgN/A
9:00 AM82 °FScattered clouds.6 mph84%29.98 "HgN/A
8:00 AM79 °FScattered clouds.7 mph100%29.98 "HgN/A
7:00 AM77 °FScattered clouds.6 mph100%29.95 "HgN/A
6:00 AM75 °FPassing clouds.6 mph100%29.92 "Hg3 mi
5:00 AM77 °FPassing clouds.5 mph100%29.92 "Hg6 mi
4:00 AM77 °FPassing clouds.No wind100%29.92 "HgN/A
3:00 AM77 °FPassing clouds.No wind100%29.95 "HgN/A
2:00 AM77 °FPassing clouds.No wind94%29.95 "HgN/A
1:00 AM79 °FPassing clouds.1 mph94%29.98 "HgN/A
12:00 AM79 °FPartly cloudy.3 mph94%29.98 "HgN/A
11:00 PM
Tue, Sep 1
79 °FPartly cloudy.3 mph94%29.98 "HgN/A
10:00 PM79 °FPassing clouds.3 mph94%29.98 "HgN/A
8:00 PM79 °FPassing clouds.6 mph94%29.95 "HgN/A
7:00 PM79 °FPartly cloudy.9 mph89%29.92 "HgN/A
6:00 PM81 °FPartly cloudy.13 mph89%29.92 "HgN/A
5:00 PM82 °FPassing clouds.14 mph84%29.92 "HgN/A
4:00 PM84 °FScattered clouds.14 mph74%29.92 "HgN/A
3:00 PM86 °FScattered clouds.14 mph70%29.95 "HgN/A
2:00 PM86 °FPartly sunny.14 mph70%29.95 "HgN/A
1:00 PM86 °FBroken clouds.13 mph70%29.95 "HgN/A
12:00 PM82 °FDrizzle. Broken clouds.12 mph84%29.98 "HgN/A
Weather by CustomWeather, © 2015

See weather overviewHow to use our weather pages